IZ8XTV-13 Weather Reports


time (UTC)temp
C
wind
direction
speed
KPH
gust
KPH
rain 1hr
cm
rain 24hr
cm
rain mn
cm
humidity
%
barometer
mb
20260507180536 21 0 0.0 0.0 0.00 0.00 0.00 99 1011.8
20260507175525 21 0 0.0 0.0 0.00 0.00 0.00 99 1011.9
20260507174512 21 0 0.0 0.0 0.00 0.00 0.00 99 1011.8
20260507173501 22 0 0.0 0.0 0.00 0.00 0.00 99 1011.7
20260507172451 22 0 0.0 0.0 0.00 0.00 0.00 99 1011.6
20260507171437 22 0 0.0 0.0 0.00 0.00 0.00 98 1011.7
20260507170425 22 0 0.0 0.0 0.00 0.00 0.00 95 1011.4
20260507165413 23 0 0.0 0.0 0.00 0.00 0.00 91 1011.4
20260507164402 23 0 0.0 0.0 0.00 0.00 0.00 87 1011.4
20260507163351 23 0 0.0 0.0 0.00 0.00 0.00 88 1011.4
20260507162340 24 0 0.0 0.0 0.00 0.00 0.00 87 1011.3
20260507161328 23 0 0.0 0.0 0.00 0.00 0.00 87 1011.5
20260507160316 23 0 0.0 0.0 0.00 0.00 0.00 87 1011.5
20260507155306 24 0 0.0 0.0 0.00 0.00 0.00 87 1011.6
20260507155020 23 0 0.0 0.0 0.00 0.00 0.00 87 1011.6
20260507154010 24 0 0.0 0.0 0.00 0.00 0.00 85 1011.7
20260507152958 24 0 0.0 0.0 0.00 0.00 0.00 85 1011.8
20260507151947 24 0 0.0 0.0 0.00 0.00 0.00 83 1011.9
20260507150936 25 0 0.0 0.0 0.00 0.00 0.00 81 1011.9
20260507145925 25 0 0.0 0.0 0.00 0.00 0.00 80 1012.0
20260507144914 25 0 0.0 0.0 0.00 0.00 0.00 79 1011.8
20260507143903 25 0 0.0 0.0 0.00 0.00 0.00 80 1012.0
20260507142852 25 0 0.0 0.0 0.00 0.00 0.00 75 1012.1
20260507141841 25 0 0.0 0.0 0.00 0.00 0.00 74 1012.2
20260507140830 25 0 0.0 0.0 0.00 0.00 0.00 73 1012.3
20260507135819 25 0 0.0 0.0 0.00 0.00 0.00 74 1012.3
20260507134808 25 0 0.0 0.0 0.00 0.00 0.00 74 1012.4
20260507133757 25 0 0.0 0.0 0.00 0.00 0.00 76 1012.4
20260507132746 25 0 0.0 0.0 0.00 0.00 0.00 76 1012.5
20260507131735 25 0 0.0 0.0 0.00 0.00 0.00 77 1012.6
20260507130724 25 0 0.0 0.0 0.00 0.00 0.00 76 1012.7
20260507125713 25 0 0.0 0.0 0.00 0.00 0.00 76 1012.9
20260507124702 25 0 0.0 0.0 0.00 0.00 0.00 76 1013.0
20260507123651 25 0 0.0 0.0 0.00 0.00 0.00 77 1013.2
20260507122639 25 0 0.0 0.0 0.00 0.00 0.00 77 1013.3
20260507121628 25 0 0.0 0.0 0.00 0.00 0.00 79 1013.2
20260507120617 25 0 0.0 0.0 0.00 0.00 0.00 79 1013.3
20260507115606 24 0 0.0 0.0 0.00 0.00 0.00 80 1013.4
20260507114555 24 0 0.0 0.0 0.00 0.00 0.00 86 1013.5
20260507113544 25 0 0.0 0.0 0.00 0.00 0.00 86 1013.6
20260507112532 24 0 0.0 0.0 0.00 0.00 0.00 87 1013.8
20260507111520 25 0 0.0 0.0 0.00 0.00 0.00 87 1013.9
20260507110507 25 0 0.0 0.0 0.00 0.00 0.00 87 1013.9
20260507105454 25 0 0.0 0.0 0.00 0.00 0.00 88 1014.0
20260507104443 24 0 0.0 0.0 0.00 0.00 0.00 91 1014.2
20260507103432 23 0 0.0 0.0 0.00 0.00 0.00 94 1014.2
20260507102420 23 0 0.0 0.0 0.00 0.00 0.00 96 1013.9
20260507101409 23 0 0.0 0.0 0.00 0.00 0.00 97 1014.1
20260507100358 22 0 0.0 0.0 0.00 0.00 0.00 96 1014.0
20260507095345 22 0 0.0 0.0 0.00 0.00 0.00 99 1014.2
20260507094334 22 0 0.0 0.0 0.00 0.00 0.00 99 1014.1
20260507093321 22 0 0.0 0.0 0.00 0.00 0.00 99 1014.2
20260507092309 21 0 0.0 0.0 0.00 0.00 0.00 99 1014.1
20260507091257 21 0 0.0 0.0 0.00 0.00 0.00 99 1014.2
20260507090245 21 0 0.0 0.0 0.00 0.00 0.00 99 1014.3
20260507085233 20 0 0.0 0.0 0.00 0.00 0.00 99 1014.3
20260507084220 20 0 0.0 0.0 0.00 0.00 0.00 99 1014.3
20260507083209 21 0 0.0 0.0 0.00 0.00 0.00 99 1014.5
20260507082158 20 0 0.0 0.0 0.00 0.00 0.00 99 1014.6
20260507081145 20 0 0.0 0.0 0.00 0.00 0.00 99 1014.6
20260507080132 19 0 0.0 0.0 0.00 0.00 0.00 99 1014.5
20260507075121 19 0 0.0 0.0 0.00 0.00 0.00 99 1014.4
20260507074109 18 0 0.0 0.0 0.00 0.00 0.00 99 1014.4
20260507073058 18 0 0.0 0.0 0.00 0.00 0.00 99 1014.4
20260507072046 18 0 0.0 0.0 0.00 0.00 0.00 99 1014.6
20260507071034 18 0 0.0 0.0 0.00 0.00 0.00 99 1014.6
20260507070023 17 0 0.0 0.0 0.00 0.00 0.00 99 1014.5
20260507065011 17 0 0.0 0.0 0.00 0.00 0.00 99 1014.4
20260507063959 17 0 0.0 0.0 0.00 0.00 0.00 99 1014.4
20260507062947 16 0 0.0 0.0 0.00 0.00 0.00 99 1014.5
20260507061935 16 0 0.0 0.0 0.00 0.00 0.00 99 1014.6
20260507060922 16 0 0.0 0.0 0.00 0.00 0.00 99 1014.7
20260507055911 15 0 0.0 0.0 0.00 0.00 0.00 99 1014.6
20260507054859 15 0 0.0 0.0 0.00 0.00 0.00 99 1014.7
20260507053846 15 0 0.0 0.0 0.00 0.00 0.00 99 1014.6
20260507052835 15 0 0.0 0.0 0.00 0.00 0.00 99 1014.4
20260507051823 15 0 0.0 0.0 0.00 0.00 0.00 99 1014.2
20260507050811 15 0 0.0 0.0 0.00 0.00 0.00 99 1014.1
20260507045759 15 0 0.0 0.0 0.00 0.00 0.00 99 1014.2
20260507044747 14 0 0.0 0.0 0.00 0.00 0.00 99 1014.1
20260507043734 14 0 0.0 0.0 0.00 0.00 0.00 99 1013.9
20260507042723 14 0 0.0 0.0 0.00 0.00 0.00 99 1013.9
20260507041711 14 0 0.0 0.0 0.00 0.00 0.00 99 1013.9
20260507040658 15 0 0.0 0.0 0.00 0.00 0.00 99 1013.9
20260507035645 15 0 0.0 0.0 0.00 0.00 0.00 99 1013.8
20260507034633 15 0 0.0 0.0 0.00 0.00 0.00 99 1013.6
20260507033622 15 0 0.0 0.0 0.00 0.00 0.00 99 1013.8
20260507032609 15 0 0.0 0.0 0.00 0.00 0.00 99 1013.8
20260507031557 15 0 0.0 0.0 0.00 0.00 0.00 99 1013.9
20260507030545 15 0 0.0 0.0 0.00 0.00 0.00 99 1014.1
20260507025534 15 0 0.0 0.0 0.00 0.00 0.00 99 1014.1
20260507024521 15 0 0.0 0.0 0.00 0.00 0.00 99 1014.1
20260507023510 15 0 0.0 0.0 0.00 0.00 0.00 99 1014.7
20260507022458 15 0 0.0 0.0 0.00 0.00 0.00 99 1014.5
20260507021444 15 0 0.0 0.0 0.00 0.00 0.00 99 1014.7
20260507020433 15 0 0.0 0.0 0.00 0.00 0.00 99 1014.5
20260507015422 15 0 0.0 0.0 0.00 0.00 0.00 99 1014.3
20260507014410 15 0 0.0 0.0 0.00 0.00 0.00 99 1014.3
20260507013358 15 0 0.0 0.0 0.00 0.00 0.00 99 1014.5
20260507012345 15 0 0.0 0.0 0.00 0.00 0.00 99 1014.4
20260507011334 15 0 0.0 0.0 0.00 0.00 0.00 99 1014.5
20260507010322 15 0 0.0 0.0 0.00 0.00 0.00 99 1014.4
20260507005310 15 0 0.0 0.0 0.00 0.00 0.00 99 1014.5
20260507004258 15 0 0.0 0.0 0.00 0.00 0.00 99 1014.4
20260507003246 15 0 0.0 0.0 0.00 0.00 0.00 99 1014.5
20260507002235 15 0 0.0 0.0 0.00 0.00 0.00 99 1014.8
20260507001223 16 0 0.0 0.0 0.00 0.00 0.00 99 1014.8
20260507000212 16 0 0.0 0.0 0.00 0.00 0.00 99 1014.9
20260506235159 16 0 0.0 0.0 0.00 0.00 0.00 99 1015.0
20260506234146 16 0 0.0 0.0 0.00 0.00 0.00 99 1015.0
20260506233134 16 0 0.0 0.0 0.00 0.00 0.00 99 1015.1
20260506232122 16 0 0.0 0.0 0.00 0.00 0.00 99 1015.2
20260506231109 16 0 0.0 0.0 0.00 0.00 0.00 99 1015.2
20260506230058 16 0 0.0 0.0 0.00 0.00 0.00 99 1015.4
20260506225046 16 0 0.0 0.0 0.00 0.00 0.00 99 1015.6
20260506224035 16 0 0.0 0.0 0.00 0.00 0.00 99 1015.6
20260506223024 16 0 0.0 0.0 0.00 0.00 0.00 99 1015.7
20260506222012 16 0 0.0 0.0 0.00 0.00 0.00 99 1015.8
20260506221000 16 0 0.0 0.0 0.00 0.00 0.00 99 1015.5
20260506215948 17 0 0.0 0.0 0.00 0.00 0.00 99 1015.5
20260506214937 16 0 0.0 0.0 0.00 0.00 0.00 99 1015.6
20260506213925 17 0 0.0 0.0 0.00 0.00 0.00 99 1015.5
20260506212914 17 0 0.0 0.0 0.00 0.00 0.00 98 1015.6
20260506211902 17 0 0.0 0.0 0.00 0.00 0.00 98 1015.6
20260506210849 17 0 0.0 0.0 0.00 0.00 0.00 99 1015.6
20260506205837 17 0 0.0 0.0 0.00 0.00 0.00 99 1015.7
20260506204826 17 0 0.0 0.0 0.00 0.00 0.00 97 1015.9
20260506203813 18 0 0.0 0.0 0.00 0.00 0.00 97 1015.9
20260506202802 18 0 0.0 0.0 0.00 0.00 0.00 95 1016.0
20260506201751 18 0 0.0 0.0 0.00 0.00 0.00 91 1016.1
20260506200738 18 0 0.0 0.0 0.00 0.00 0.00 89 1016.0
20260506195727 18 0 0.0 0.0 0.00 0.00 0.00 88 1016.0
20260506194716 18 0 0.0 0.0 0.00 0.00 0.00 87 1016.2
20260506193705 18 0 0.0 0.0 0.00 0.00 0.00 87 1016.0
20260506192654 19 0 0.0 0.0 0.00 0.00 0.00 87 1015.9
20260506191643 19 0 0.0 0.0 0.00 0.00 0.00 87 1015.7
20260506190632 19 0 0.0 0.0 0.00 0.00 0.00 88 1015.4
20260506185621 19 0 0.0 0.0 0.00 0.00 0.00 88 1015.2
20260506184610 19 0 0.0 0.0 0.00 0.00 0.00 87 1015.0
20260506183559 19 0 0.0 0.0 0.00 0.00 0.00 86 1014.8
20260506182548 20 0 0.0 0.0 0.00 0.00 0.00 84 1014.8
20260506181537 20 0 0.0 0.0 0.00 0.00 0.00 82 1014.8